Tracking 19562 objects as of 24-Mar-2019
HD Live streaming from Space Station
objects crossing your sky now

FLOCK 2K 33

Track FLOCK 2K 33 now!
10-day predictions
FLOCK 2K 33 is classified as:


NORAD ID: 42879
Int'l Code: 2017-042BG
Perigee: 444.1 km
Apogee: 459.8 km
Inclination: 97.0 °
Period: 93.5 minutes
Semi major axis: 6822 km
RCS: Unknown
Launch date: July 14, 2017
Source: United States (US)
Launch site: TYURATAM MISSILE AND SPACE COMPLEX (TTMTR)
aabbcc
Your satellite tracking list
Your tracking list is empty




NASA's NSSDC Master Catalog

Two Line Element Set (TLE):
1 42879U 17042BG  19083.21932913  .00005075  00000-0  12710-3 0  9996
2 42879  96.9512 330.9692 0011506 155.2039 204.9764 15.40427283 94702
Source of the keplerian elements: AFSPC